Location: Lombard
(41.8800°N, 88.0080°W)
Time: 16:56:33
(UTC-06:00)

Vanguard 3 - Pass Details

Date: 13 December 2023
Orbit: 508 x 3239 km, 33.4° (Epoch: 23 February)

Event Time Altitude Azimuth Distance (km) Brightness Sun altitude
Rises 22:03:36 0° 267° (W) 6,750 12.2 -61.6°
Reaches altitude 10° 22:08:44 10° 264° (W) 5,405 11.5 -62.4°
Enters shadow 22:13:52 23° 257° (WSW) 4,022 10.7 -63.2°
